EW9501 Weather Reports


time (UTC)temp
C
wind
direction
speed
KPH
gust
KPH
rain 1hr
cm
rain 24hr
cm
rain mn
cm
humidity
%
barometer
mb
20260506144518 11 0.0 0.0 0.00 2.34 0.53 64 1010.4
20260506143018 11 0.0 0.0 0.00 2.34 0.53 68 1010.3
20260506141513 10 0.0 0.0 0.00 2.34 0.53 71 1010.2
20260506140013 10 0.0 0.0 0.00 2.34 0.53 73 1010.4
20260506134506 10 0.0 0.0 0.00 2.34 0.53 75 1010.3
20260506133003 9 0.0 0.0 0.00 2.34 0.53 79 1009.9
20260506131600 8 0.0 0.0 0.00 2.34 0.53 83 1009.8
20260506130059 8 0.0 0.0 0.00 2.34 0.53 85 1009.4
20260506124558 8 0.0 0.0 0.00 2.34 0.53 86 1009.5
20260506123054 7 0.0 0.0 0.00 2.34 0.53 88 1009.1
20260506121553 7 0.0 0.0 0.00 2.34 0.53 89 1008.9
20260506120053 7 0.0 0.0 0.00 2.34 0.53 90 1008.9
20260506114559 7 0.0 0.0 0.00 2.34 0.53 91 1008.6
20260506113058 7 0.0 0.0 0.00 2.34 0.53 91 1008.8
20260506111552 7 0.0 0.0 0.00 2.34 0.53 91 1008.8
20260506110049 7 0.0 0.0 0.00 2.34 0.53 91 1008.3
20260506104555 7 0.0 0.0 0.00 2.34 0.53 92 1007.9
20260506103051 6 0.0 0.0 0.00 2.34 0.53 91 1007.5
20260506101551 6 0.0 0.0 0.00 2.34 0.53 91 1007.3
20260506100045 7 0.0 0.0 0.00 2.34 0.53 90 1007.3
20260506094545 7 0.0 0.0 0.03 2.34 0.53 90 1007.0
20260506093045 6 0.0 0.0 0.03 2.34 0.53 89 1007.7
20260506091544 6 0.0 0.0 0.03 2.34 0.53 89 1007.6
20260506090042 6 0.0 0.0 0.05 2.34 0.53 90 1007.3
20260506084543 7 0.0 0.0 0.03 2.31 0.51 91 1007.6
20260506083041 7 0.0 0.0 0.05 2.31 0.51 91 1007.5
20260506081540 7 0.0 0.0 0.08 2.31 0.51 91 1007.3
20260506073039 7 0.0 0.0 0.08 2.24 0.43 91 1007.6
20260506071537 7 0.0 0.0 0.10 2.24 0.43 91 1007.8
20260506061531 7 0.0 0.0 0.18 2.13 0.33 93 1007.4
20260506050105 8 0.0 0.0 0.15 1.93 0.13 93 1007.3
20260506044652 8 0.0 0.0 0.15 1.91 0.10 93 1007.2
20260506041551 8 0.0 0.0 0.15 1.83 0.03 94 1007.4
20260506040047 8 0.0 0.0 0.15 1.78 1.78 94 1007.2
20260506034546 8 0.0 0.0 0.20 1.75 1.75 94 1007.3
20260506033045 8 0.0 0.0 0.25 1.73 1.73 93 1007.2
20260506031545 8 0.0 0.0 0.25 1.68 1.68 93 1007.2
20260506030044 8 0.0 0.0 0.25 1.63 1.63 93 1007.7
20260506024545 8 0.0 0.0 0.28 1.55 1.55 93 1007.7
20260506023054 8 0.0 0.0 0.25 1.45 1.45 93 1007.6
20260506021553 8 0.0 0.0 0.25 1.42 1.42 93 1007.6
20260506020041 8 0.0 0.0 0.23 1.37 1.37 93 1007.5
20260506014543 8 0.0 0.0 0.15 1.27 1.27 92 1007.2
20260506013037 8 0.0 0.0 0.10 1.22 1.22 92 1007.1
20260506011535 8 0.0 0.0 0.08 1.17 1.17 92 1006.8
20260506010045 9 0.0 0.0 0.10 1.14 1.14 92 1006.6
20260506004533 9 0.0 0.0 0.10 1.12 1.12 92 1006.5
20260506003033 9 0.0 0.0 0.10 1.12 1.12 92 1006.7
20260506001532 9 0.0 0.0 0.10 1.09 1.09 92 1006.7
20260506000030 9 0.0 0.0 0.08 1.04 1.04 92 1006.8
20260505234544 9 0.0 0.0 0.05 1.02 1.02 92 1006.6
20260505233035 9 0.0 0.0 0.08 1.02 1.02 92 1006.5
20260505231531 9 0.0 0.0 0.08 0.99 0.99 92 1006.3
20260505230025 10 0.0 0.0 0.10 0.97 0.97 92 1006.3
20260505224523 10 0.0 0.0 0.18 0.97 0.97 91 1006.3
20260505223023 10 0.0 0.0 0.23 0.94 0.94 92 1006.2
20260505221523 10 0.0 0.0 0.33 0.91 0.91 91 1006.3
20260505220020 10 0.0 0.0 0.36 0.86 0.86 91 1006.3
20260505214534 10 0.0 0.0 0.30 0.79 0.79 91 1006.2
20260505213017 10 0.0 0.0 0.25 0.69 0.69 91 1005.9
20260505211517 10 0.0 0.0 0.18 0.58 0.58 91 1006.0
20260505210015 10 0.0 0.0 0.10 0.51 0.51 90 1005.8
20260505204513 10 0.0 0.0 0.08 0.46 0.46 89 1005.9
20260505203017 11 0.0 0.0 0.08 0.43 0.43 88 1005.7
20260505201510 11 0.0 0.0 0.10 0.41 0.41 88 1005.9
20260505200007 11 0.0 0.0 0.15 0.41 0.41 90 1006.1
20260505194506 11 0.0 0.0 0.18 0.38 0.38 90 1006.5
20260505193002 12 0.0 0.0 0.18 0.33 0.33 89 1006.5
20260505191600 12 0.0 0.0 0.18 0.30 0.30 90 1006.4
20260505190055 13 0.0 0.0 0.18 0.25 0.25 90 1005.9
20260505184555 13 0.0 0.0 0.18 0.20 0.20 89 1005.9
20260505183054 13 0.0 0.0 0.15 0.15 0.15 88 1005.8
20260505181551 13 0.0 0.0 0.10 0.10 0.10 86 1005.5
20260505180104 14 0.0 0.0 0.08 0.08 0.08 84 1005.7
20260505174558 15 0.0 0.0 0.03 0.03 0.03 81 1005.5
20260505173046 15 0.0 0.0 0.00 0.00 0.00 76 1005.5
20260505171542 16 0.0 0.0 0.00 0.00 0.00 76 1005.5
20260505170041 15 0.0 0.0 0.00 0.00 0.00 76 1005.6
20260505164540 16 0.0 0.0 0.00 0.00 0.00 74 1005.6
20260505163039 16 0.0 0.0 0.00 0.00 0.00 73 1005.5
20260505161539 16 0.0 0.0 0.00 0.00 0.00 72 1005.5
20260505153040 16 0.0 0.0 0.00 0.00 0.00 72 1005.4
20260505151536 16 0.0 0.0 0.00 0.00 0.00 71 1005.3